Terminal Aerodrome Forecast
Issued by NWS Grand Junction, CO

Home | Current Version | Previous Version | Text Only | Print | Product List | Glossary On
Versions: 1 2 3 4 5 6 7 8 9 10 11 12 13 14 15 16 17 18 19 20 21 22 23 24
000
FTUS45 KGJT 161734
TAFGJT
TAF
KGJT 161734Z 1618/1718 15008KT P6SM FEW110
     FM161900 31007KT P6SM FEW110
     FM170200 02005KT P6SM SCT250
     FM170900 12004KT P6SM SKC=

USA.gov is the U.S. government's official web portal to all federal, state and local government web resources and services.